Weather History for KREO - January, 2013

Change the Weather History Date:

Tuesday, January 15, 2013

  Actual Average Record
Temperature  
Mean Temperature 21 °F 29 °F  
Max Temperature 31 °F 39 °F 57 °F (2014)
Min Temperature 11 °F 20 °F -10 °F (1947)
Degree Days  
Heating Degree Days 44 36  
Month to date heating degree days 784 544  
Since 1 July heating degree days 3141 3291  
Cooling Degree Days 0 0  
Month to date cooling degree days 0 0  
Year to date cooling degree days 0 0  
Moisture  
Dew Point 10 °F    
Average Humidity 68    
Maximum Humidity 76    
Minimum Humidity 60    
Precipitation  
Precipitation 0.00 in 0.02 in 0.45 in (1978)
Month to date precipitation 0.22 0.35  
Year to date precipitation 0.22 0.35  
Sea Level Pressure  
Sea Level Pressure 30.68 in    
Wind  
Wind Speed 13 mph (SE)    
Max Wind Speed 26 mph    
Max Gust Speed 31 mph    
T = Trace of Precipitation, MM = Missing Value Source: NWS Daily Summary

Daily Weather History Graph

Daily Weather History Graph

Search for Another Location

Airport or City:

Trip Planner

Search our weather history database for the weather conditions in past years. The results will help you decide how hot, cold, wet, or windy it might be!

Date:

Astronomy

Jan. 15, 2013 Rise Set
Actual Time 7:18 AM PST 4:43 PM PST
Civil Twilight 6:47 AM PST 5:15 PM PST
Nautical Twilight 6:12 AM PST 5:49 PM PST
Astronomical Twilight 5:38 AM PST 6:23 PM PST
Moon 9:19 AM PST (1/15) 9:46 PM PST (1/15)
Length of Visible Light 10h 27m
Length of Day
9h 25m
Waxing Crescent, 20% of the Moon is Illuminated
Jan 15
Waxing Crescent
Jan 18
First Quarter
Jan 26
Full
Feb 3
Last Quarter
Feb 9
New

Hourly Weather History & Observations

Time (PST) Temp. Windchill Dew Point Humidity Pressure Visibility Wind Dir Wind Speed Gust Speed Precip Events Conditions
12:52 AM 14.0 °F -3.4 °F 6.1 °F 71% 30.56 in - SE 19.6 mph 29.9 mph N/A   Unknown
1:52 AM 14.0 °F -2.5 °F 6.1 °F 71% 30.57 in - SSE 17.3 mph - N/A   Unknown
2:52 AM 14.0 °F -2.5 °F 6.1 °F 71% 30.60 in - SE 17.3 mph - N/A   Unknown
3:52 AM 14.0 °F -0.2 °F 6.1 °F 71% 30.62 in - SE 12.7 mph 19.6 mph N/A   Unknown
4:52 AM 14.0 °F -2.0 °F 5.0 °F 67% 30.63 in - SE 16.1 mph - N/A   Unknown
5:52 AM 14.0 °F 0.5 °F 5.0 °F 67% 30.64 in - SSE 11.5 mph - N/A   Unknown
6:52 AM 12.9 °F 2.6 °F 6.1 °F 74% 30.66 in - South 6.9 mph - N/A   Unknown
7:52 AM 14.0 °F 1.2 °F 6.1 °F 71% 30.69 in - South 10.4 mph - N/A   Unknown
8:52 AM 18.0 °F 6.9 °F 8.1 °F 65% 30.70 in - SE 9.2 mph - N/A   Unknown
9:52 AM 19.9 °F 5.2 °F 10.0 °F 65% 30.70 in - SE 17.3 mph 23.0 mph N/A   Unknown
10:52 AM 24.1 °F 13.1 °F 12.9 °F 62% 30.70 in - SE 11.5 mph - N/A   Unknown
11:52 AM 25.0 °F 12.2 °F 15.1 °F 66% 30.68 in - SE 16.1 mph - N/A   Unknown
12:52 PM 27.0 °F 16.1 °F 16.0 °F 63% 30.66 in - SE 12.7 mph - N/A   Unknown
1:52 PM 28.9 °F 23.9 °F 17.1 °F 61% 30.66 in - South 4.6 mph - N/A   Unknown
2:52 PM 28.0 °F 18.6 °F 18.0 °F 66% 30.68 in - SE 10.4 mph - N/A   Unknown
3:52 PM 25.0 °F 12.6 °F 14.0 °F 63% 30.70 in - SE 15.0 mph 21.9 mph N/A   Unknown
4:52 PM 21.0 °F 7.6 °F 10.9 °F 65% 30.73 in - SE 15.0 mph - N/A   Unknown
5:52 PM 19.9 °F 8.6 °F 10.9 °F 68% 30.74 in - SSE 10.4 mph - N/A   Unknown
6:52 PM 19.0 °F 7.5 °F 10.0 °F 68% 30.76 in - SSE 10.4 mph - N/A   Unknown
7:52 PM 19.9 °F 7.9 °F 10.0 °F 65% 30.75 in - SE 11.5 mph - N/A   Unknown
8:52 PM 19.0 °F 6.1 °F 9.0 °F 65% 30.74 in - SE 12.7 mph - N/A   Unknown
9:52 PM 19.0 °F 7.5 °F 9.0 °F 65% 30.72 in - SE 10.4 mph - N/A   Unknown
10:52 PM 18.0 °F 5.4 °F 9.0 °F 68% 30.71 in - SE 11.5 mph - N/A   Unknown
11:52 PM 19.0 °F 6.1 °F 9.0 °F 65% 30.71 in - SE 12.7 mph - N/A   Unknown